This is the latest recevied weather packets stored in our database for station/object K9YK-13. If no packets are shown the sender has not sent any weather packets the latest 10 day(s).
| Time | Temp. | Humidity | Pressure | Rain* | Wind** | Luminosity | Snow |
|---|---|---|---|---|---|---|---|
| 1777987870 | 11.67° C | 86% | 0 hPa | 0 mm | - | - | - |
| 1777987570 | 12.22° C | 87% | 0 hPa | 0 mm | - | - | - |
| 1777987270 | 12.22° C | 88% | 0 hPa | 0 mm | - | - | - |
| 1777986970 | 12.22° C | 88% | 0 hPa | 0 mm | - | - | - |
| 1777986670 | 11.67° C | 89% | 0 hPa | 0 mm | - | - | - |
| 1777986370 | 11.11° C | 88% | 0 hPa | 0 mm | - | - | - |
| 1777985170 | 11.67° C | 91% | 0 hPa | 0 mm | - | - | - |
| 1777984570 | 12.78° C | 91% | 0 hPa | 0 mm | - | - | - |
| 1777984270 | 11.67° C | 91% | 0 hPa | 0 mm | - | - | - |
| 1777983670 | 12.22° C | 90% | 0 hPa | 0 mm | - | - | - |
| 1777983370 | 13.33° C | 91% | 0 hPa | 0 mm | - | - | - |
| 1777982770 | 13.33° C | 92% | 0 hPa | 0 mm | - | - | - |
| 1777981870 | 12.78° C | 90% | 0 hPa | 0 mm | - | - | - |
| 1777981270 | 13.33° C | 90% | 0 hPa | 0 mm | - | - | - |
| 1777980970 | 13.33° C | 92% | 0 hPa | 0 mm | - | - | - |
| 1777980670 | 12.78° C | 95% | 0 hPa | 0 mm | - | - | - |
| 1777980370 | 12.22° C | 96% | 0 hPa | 0 mm | - | - | - |
| 1777980070 | 13.33° C | 96% | 0 hPa | 0 mm | - | - | - |
| 1777979770 | 12.22° C | 96% | 0 hPa | 0 mm | - | - | - |
| 1777979170 | 12.78° C | 96% | 0 hPa | 0 mm | - | - | - |
| 1777978570 | 12.78° C | 96% | 0 hPa | 0 mm | - | - | - |
| 1777978270 | 13.89° C | 96% | 0 hPa | 0 mm | - | - | - |
| 1777977370 | 13.89° C | 96% | 0 hPa | 0 mm | - | - | - |
| 1777976770 | 13.89° C | 96% | 0 hPa | 0 mm | - | - | - |
| 1777976470 | 13.33° C | 96% | 0 hPa | 0 mm | - | - | - |
* Rain latest hour (hover to see other rain measurements)
** Current wind speed in m/s (hover to see current wind gust speed)